COSMOS 2251 DEB

Satellite information

Favourite Embed

Satellite Type and Status

DEBRISIN ORBIT

Key statistics

Satellite COSMOS 2251 DEB at a glance.

Uptime

11769

Days in orbit

Revolutions

≈ 13.8

Per day

Orbit

LEO

Low Earth Orbit

Inclination

74.1

Latest

Satellite identification and parameters

Extended collection of information and parameters for COSMOS 2251 DEB.

Object identification

Identified? True

Debris? True

Object name: COSMOS 2251 DEB

International designator: 1993-036GN

Object number (NORAD): 34003

Object ID (CCSDS): 34003

Country: COMMONWEALTH OF INDEPENDENT STATES (CIS)

Current information (Y/N): Y

RCS size: SMALL

Orbital parameters

Period: 104.092 minutes

Inclination: 74.0795 deg

SMA: 7330.015 km

Apoapsis: 1155.472 km

Periapsis: 748.288 km

RAAN: 102.9455 deg

Eccentricy: 0.0277751

Argument of periapsis: 239.9149 deg

Mean anomaly: 117.4174 deg

Mean motion: 13.83392629 rev/day

Mean motion (dot): 0.00001888 rev/day2

B* drag term: 0.0012912938 1/REarth

Two-line elements (TLE)

Creation date: Aug. 29, 2025, 9:54 a.m.

Reference frame: TEME

Reference center: EARTH

Epoch: Aug. 29, 2025, 12:55 a.m. UTC

TLE line 0: 0 COSMOS 2251 DEB

TLE line 1: 1 34003U 93036GN 25241.03877252 .00001888 00000-0 12913-2 0 9992

TLE line 2: 2 34003 74.0795 102.9455 0277751 239.9149 117.4174 13.83392629829635

Live tracking on map

Real-time ground track for satellite COSMOS 2251 DEB.

In-orbit conjunctions

A list of the most updated potential collisions computed for object COSMOS 2251 DEB.

Target Orbit TCA Probability of collision Miss distance Type
METEOR 1-12 LEO 2025-08-22 07:20:26 0.0001285538 314.0 (m) PAYLOAD
FENGYUN 1C DEB SSO 2024-11-13 12:36:40 0.0003567552 586.0 (m) DEBRIS

Associated space launch

Military communications satellite. Destroyed in a collision with Iridium 33.

COSMOS 2251 DEB was lifted into orbit during the mission ‘Kosmos-3M | Strela-2M 51’, on board a Kosmos-3M space rocket.

The launch took place on June 16, 1993, 4:17 a.m. from 132/1 (132L).

For more information about the launch, click the button.

Launch to space Kosmos-3M | Strela-2M 51
Kosmos-3M | Strela-2M 51

Agency: N/A

Status: Launch Successful

Launch date: June 16, 1993, 4:17 a.m. UTC

Rocket: Kosmos-3M

Launch pad: 132/1 (132L)

Location: Plesetsk Cosmodrome, Russian Federation

...

Latest news about this satellite

There are no fresh news available about this satellite. Check back as we update our databases every day.


Newsletter sign-up

Weekly statistics, charts and insights to help you stay on top of the space industry.